| DS18B20 | SHTC3 | ||||||
|---|---|---|---|---|---|---|---|
| ID | Date d/m/Y & Time | data1 สูง | data2 ต่ำ | data3 นอก | temp pcb | hum pcb | Time |
| 10815 | 11/04/2026 09:39:20 | 30.4  | 29.5  | 33.1  | 30.1  | 68.3  | 09:39 |
| 10814 | 11/04/2026 09:34:38 | 30.3  | 29.4  | 33.0  | 30.0  | 68.4  | 09:34 |
| 10813 | 11/04/2026 09:29:56 | 30.2  | 29.4  | 32.7  | 30.0  | 68.6  | 09:29 |
| 10812 | 11/04/2026 09:25:12 | 30.1  | 29.3  | 32.4  | 29.8  | 68.7  | 09:25 |
| 10811 | 11/04/2026 09:20:31 | 29.9  | 29.2  | 32.1  | 29.5  | 69.0  | 09:20 |
| 10810 | 11/04/2026 09:15:46 | 29.8  | 29.1  | 31.9  | 29.6  | 69.3  | 09:15 |
| 10809 | 11/04/2026 09:11:05 | 29.7  | 29.0  | 32.1  | 29.4  | 69.3  | 09:11 |
| 10808 | 11/04/2026 09:06:20 | 29.5  | 28.9  | 31.6  | 29.1  | 69.3  | 09:06 |
| 10807 | 11/04/2026 09:01:38 | 29.3  | 28.8  | 31.4  | 29.2  | 69.7  | 09:01 |
| 10806 | 11/04/2026 08:56:57 | 29.2  | 28.7  | 31.5  | 29.0  | 69.9  | 08:56 |
| 10805 | 11/04/2026 08:52:15 | 29.0  | 28.6  | 31.4  | 28.9  | 70.2  | 08:52 |
| 10804 | 11/04/2026 08:47:31 | 28.9  | 28.6  | 31.2  | 28.6  | 70.4  | 08:47 |
| 10803 | 11/04/2026 08:42:49 | 28.8  | 28.4  | 31.0  | 28.6  | 70.8  | 08:42 |
| 10802 | 11/04/2026 08:38:06 | 28.6  | 28.4  | 30.5  | 28.4  | 71.2  | 08:38 |
| 10801 | 11/04/2026 08:33:24 | 28.5  | 28.3  | 30.5  | 28.4  | 71.3  | 08:33 |
| 10800 | 11/04/2026 08:28:42 | 28.4  | 28.2  | 30.3  | 28.4  | 71.4  | 08:28 |
| 10799 | 11/04/2026 08:23:59 | 28.3  | 28.2  | 30.0  | 28.2  | 71.7  | 08:23 |
| 10798 | 11/04/2026 08:19:18 | 28.2  | 28.1  | 30.1  | 28.1  | 71.7  | 08:19 |
| 10797 | 11/04/2026 08:14:34 | 28.1  | 28.1  | 29.7  | 28.0  | 71.8  | 08:14 |
| 10796 | 11/04/2026 08:09:53 | 28.1  | 28.1  | 29.4  | 28.1  | 72.1  | 08:09 |
| 10795 | 11/04/2026 08:05:08 | 28.0  | 28.0  | 28.9  | 28.0  | 72.0  | 08:05 |
| 10794 | 11/04/2026 08:00:27 | 28.0  | 27.9  | 28.7  | 27.9  | 72.1  | 08:00 |
| 10793 | 11/04/2026 07:55:43 | 27.9  | 27.9  | 28.5  | 27.8  | 72.2  | 07:55 |
| 10792 | 11/04/2026 07:51:02 | 27.9  | 27.9  | 28.2  | 27.9  | 72.2  | 07:51 |